Gig Harbor, WA

6:23 AM PST on February 23, 2017 (GMT -0800)
Tacoma Narrows

Weather History for KTIW - July, 2013

Change the Weather History Date:

Thursday, July 18, 2013

  Actual Average Record
Temperature  
Mean Temperature 64 °F -  
Max Temperature 75 °F 74 °F 91 °F (2015)
Min Temperature 55 °F 55 °F 51 °F (1999)
Degree Days  
Heating Degree Days 1    
Growing Degree Days 14 (Base 50)    
Moisture  
Dew Point 53 °F    
Average Humidity 70    
Maximum Humidity 84    
Minimum Humidity 51    
Precipitation  
Precipitation 0.00 in - - ()
Sea Level Pressure  
Sea Level Pressure 30.20 in    
Wind  
Wind Speed 2 mph (SW)    
Max Wind Speed 7 mph    
Max Gust Speed -    
Visibility 10 miles    
Events      
Averages and records for this station are not official NWS values.
T = Trace of Precipitation, MM = Missing Value Source: NWS Daily Summary

Daily Weather History Graph

Daily Weather History Graph

Search for Another Location

Airport or City:

Trip Planner

Search our weather history database for the weather conditions in past years. The results will help you decide how hot, cold, wet, or windy it might be!

Date:

Astronomy

Jul. 18, 2013 Rise Set
Actual Time 5:32 AM PDT 8:59 PM PDT
Civil Twilight 4:55 AM PDT 9:37 PM PDT
Nautical Twilight 4:04 AM PDT 10:27 PM PDT
Astronomical Twilight 2:58 AM PDT 11:32 PM PDT
Moon 5:00 PM PDT (7/18) 1:31 AM PDT (7/18)
Length of Visible Light 16h 42m
Length of Day
15h 26m
Waxing Gibbous, 78% of the Moon is Illuminated
Jul 18
Waxing Gibbous
Jul 22
Full
Jul 29
Last Quarter
Aug 6
New
Aug 14
First Quarter

Hourly Weather History & Observations

Time (PDT) Temp. Dew Point Humidity Pressure Visibility Wind Dir Wind Speed Gust Speed Precip Events Conditions
12:32 AM 57.2 °F 51.8 °F 82% 30.21 in 10.0 mi SW 3.5 mph - N/A   Mostly Cloudy
12:51 AM 57.2 °F 51.8 °F 82% 30.22 in 10.0 mi SW 3.5 mph - N/A   Scattered Clouds
12:53 AM 57.0 °F 51.1 °F 81% 30.21 in 10.0 mi SW 3.5 mph - N/A   Scattered Clouds
1:08 AM 57.2 °F 51.8 °F 82% 30.21 in 10.0 mi SW 3.5 mph - N/A   Mostly Cloudy
1:53 AM 55.9 °F 50.0 °F 80% 30.21 in 10.0 mi Calm Calm - N/A   Scattered Clouds
2:53 AM 55.9 °F 51.1 °F 84% 30.21 in 10.0 mi Calm Calm - N/A   Mostly Cloudy
3:53 AM 57.0 °F 51.1 °F 81% 30.21 in 10.0 mi Calm Calm - N/A   Overcast
4:53 AM 57.0 °F 51.1 °F 81% 30.21 in 10.0 mi Calm Calm - N/A   Overcast
5:53 AM 57.0 °F 51.1 °F 81% 30.22 in 10.0 mi Calm Calm - N/A   Overcast
6:00 AM 57.2 °F 51.8 °F 82% 30.23 in 10.0 mi Calm Calm - N/A   Overcast
6:23 AM 57.2 °F 51.8 °F 82% 30.23 in 10.0 mi Calm Calm - N/A   Overcast
6:53 AM 57.0 °F 51.1 °F 81% 30.23 in 10.0 mi West 3.5 mph - N/A   Overcast
7:53 AM 57.9 °F 51.1 °F 78% 30.23 in 10.0 mi Calm Calm - N/A   Overcast
8:53 AM 59.0 °F 52.0 °F 78% 30.24 in 10.0 mi Calm Calm - N/A   Overcast
9:53 AM 61.0 °F 53.1 °F 75% 30.24 in 10.0 mi Variable 3.5 mph - N/A   Overcast
10:08 AM 62.6 °F 53.6 °F 72% 30.24 in 10.0 mi Calm Calm - N/A   Overcast
10:53 AM 64.0 °F 53.1 °F 67% 30.23 in 10.0 mi Calm Calm - N/A   Overcast
11:53 AM 66.9 °F 53.1 °F 61% 30.22 in 10.0 mi West 4.6 mph - N/A   Mostly Cloudy
12:02 PM 66.2 °F 53.6 °F 64% 30.22 in 10.0 mi WSW 4.6 mph - N/A   Overcast
12:09 PM 66.2 °F 53.6 °F 64% 30.22 in 10.0 mi Variable 3.5 mph - N/A   Mostly Cloudy
12:53 PM 66.9 °F 53.1 °F 61% 30.21 in 10.0 mi Calm Calm - N/A   Mostly Cloudy
1:53 PM 69.1 °F 54.0 °F 58% 30.20 in 10.0 mi South 5.8 mph - N/A   Scattered Clouds
2:53 PM 72.0 °F 54.0 °F 53% 30.19 in 10.0 mi SSW 6.9 mph - N/A   Scattered Clouds
3:53 PM 73.0 °F 54.0 °F 51% 30.17 in 10.0 mi Variable 3.5 mph - N/A   Clear
4:53 PM 73.9 °F 55.0 °F 52% 30.15 in 10.0 mi SW 6.9 mph - N/A   Clear
5:53 PM 73.0 °F 55.0 °F 53% 30.14 in 10.0 mi SE 5.8 mph - N/A   Clear
6:53 PM 73.0 °F 55.0 °F 53% 30.13 in 10.0 mi South 3.5 mph - N/A   Clear
7:53 PM 73.0 °F 55.0 °F 53% 30.13 in 10.0 mi NNE 3.5 mph - N/A   Clear
8:53 PM 68.0 °F 54.0 °F 61% 30.13 in 10.0 mi Calm Calm - N/A   Clear
9:53 PM 66.0 °F 53.1 °F 63% 30.14 in 10.0 mi North 5.8 mph - N/A   Clear
10:53 PM 64.0 °F 54.0 °F 70% 30.14 in 10.0 mi NE 3.5 mph - N/A   Clear
11:53 PM 62.1 °F 53.1 °F 72% 30.15 in 10.0 mi Calm Calm - N/A   Clear